Weather History for KCSG - October, 2011

Change the Weather History Date:

Saturday, October 22, 2011

  Actual Average Record
Temperature  
Mean Temperature 57 °F 64 °F  
Max Temperature 71 °F 76 °F 88 °F (1984)
Min Temperature 43 °F 53 °F 34 °F (1987)
Degree Days  
Heating Degree Days 8 3  
Month to date heating degree days 46 37  
Since 1 July heating degree days 47 40  
Cooling Degree Days 0 3  
Month to date cooling degree days 57 99  
Year to date cooling degree days 2723 2321  
Growing Degree Days 6 (Base 50)    
Moisture  
Dew Point 40 °F    
Average Humidity 57    
Maximum Humidity 83    
Minimum Humidity 31    
Precipitation  
Precipitation 0.00 in 0.08 in 1.35 in (1990)
Month to date precipitation 0.66 1.85  
Year to date precipitation 31.33 37.65  
Sea Level Pressure  
Sea Level Pressure 30.11 in    
Wind  
Wind Speed 3 mph (NNE)    
Max Wind Speed 13 mph    
Max Gust Speed 21 mph    
Visibility 10 miles    
Events      
T = Trace of Precipitation, MM = Missing Value Source: NWS Daily Summary

Daily Weather History Graph

Daily Weather History Graph

Search for Another Location

Airport or City:

Trip Planner

Search our weather history database for the weather conditions in past years. The results will help you decide how hot, cold, wet, or windy it might be!

Date:

Astronomy

Oct. 22, 2011 Rise Set
Actual Time 7:48 AM EDT 6:59 PM EDT
Civil Twilight 7:23 AM EDT 7:24 PM EDT
Nautical Twilight 6:55 AM EDT 7:52 PM EDT
Astronomical Twilight 6:26 AM EDT 8:21 PM EDT
Moon 3:01 AM EDT (10/22) 4:03 PM EDT (10/22)
Length of Visible Light 12h 00m
Length of Day
11h 10m
Waning Crescent, 24% of the Moon is Illuminated
Oct 22
Waning Crescent
Oct 26
New
Nov 2
First Quarter
Nov 10
Full
Nov 18
Last Quarter

Hourly Weather History & Observations

Time (EDT) Temp. Windchill Dew Point Humidity Pressure Visibility Wind Dir Wind Speed Gust Speed Precip Events Conditions
12:51 AM 50.0 °F - 39.9 °F 68% 30.13 in 10.0 mi Calm Calm - N/A   Clear
1:51 AM 48.9 °F - 39.0 °F 69% 30.12 in 10.0 mi Calm Calm - N/A   Clear
2:51 AM 48.0 °F - 39.0 °F 71% 30.12 in 10.0 mi North 3.5 mph - N/A   Clear
3:51 AM 45.0 °F - 39.0 °F 80% 30.12 in 10.0 mi Calm Calm - N/A   Clear
4:51 AM 46.4 °F - 37.4 °F 71% 30.12 in 10.0 mi Calm Calm - N/A   Clear
5:51 AM 46.0 °F 43.9 °F 37.9 °F 73% 30.13 in 10.0 mi North 4.6 mph - N/A   Clear
6:51 AM 45.0 °F 41.2 °F 37.9 °F 76% 30.14 in 10.0 mi NNW 6.9 mph - N/A   Clear
7:51 AM 44.6 °F 43.1 °F 37.4 °F 76% 30.15 in 10.0 mi North 3.5 mph - N/A   Clear
8:51 AM 46.0 °F 43.1 °F 37.9 °F 73% 30.17 in 10.0 mi North 5.8 mph - N/A   Clear
9:51 AM 51.1 °F - 37.9 °F 61% 30.17 in 10.0 mi NNE 8.1 mph - N/A   Clear
10:51 AM 57.0 °F - 39.0 °F 51% 30.16 in 10.0 mi NE 8.1 mph - N/A   Clear
11:51 AM 61.0 °F - 39.9 °F 46% 30.15 in 10.0 mi ENE 6.9 mph - N/A   Clear
12:51 PM 64.0 °F - 39.9 °F 41% 30.14 in 10.0 mi Calm Calm - N/A   Clear
1:51 PM 66.9 °F - 37.9 °F 34% 30.11 in 10.0 mi North 3.5 mph - N/A   Clear
2:51 PM 68.0 °F - 37.0 °F 32% 30.08 in 10.0 mi North 6.9 mph - N/A   Clear
3:51 PM 69.1 °F - 37.9 °F 32% 30.07 in 10.0 mi NNE 4.6 mph - N/A   Clear
4:51 PM 68.0 °F - 39.0 °F 35% 30.07 in 10.0 mi East 5.8 mph - N/A   Clear
5:51 PM 69.1 °F - 37.9 °F 32% 30.06 in 10.0 mi East 5.8 mph - N/A   Clear
6:51 PM 66.9 °F - 39.9 °F 37% 30.07 in 10.0 mi Calm Calm - N/A   Clear
7:51 PM 64.0 °F - 42.1 °F 45% 30.08 in 10.0 mi Calm Calm - N/A   Clear
8:51 PM 55.9 °F - 46.0 °F 69% 30.09 in 10.0 mi Calm Calm - N/A   Clear
9:51 PM 55.0 °F - 45.0 °F 69% 30.10 in 10.0 mi Calm Calm - N/A   Clear
10:51 PM 52.0 °F - 46.0 °F 80% 30.10 in 10.0 mi East 3.5 mph - N/A   Clear
11:51 PM 52.0 °F - 45.0 °F 77% 30.09 in 10.0 mi Calm Calm - N/A   Clear